Powrót do katalogu

STARLINK-5628

AktywnyŁącznośćVLEO
NORAD 55466·PAYLOAD·🇺🇸 United States

Wystrzelony Feb 2, 2023 z Cape Canaveral Space Force Station

Loading…

Następne Przeloty (najbliższe 24 godziny)

TLE

ŚwieżeSource: CelesTrak SupGP

Epoka: Sep 14, 2026, 20:55 UTC

1 55466C 23015T   26257.87201389 -.00039287  00000+0 -14230-2 0  2576
2 55466  43.0032 340.4423 0001366 272.6952  84.1994 15.27598377    19

Śledź STARLINK-5628 w czasie rzeczywistym z AllMySat

Download on the App Store